This is the latest recevied weather packets stored in our database for station/object N1ORT. If no packets are shown the sender has not sent any weather packets the latest 10 day(s).
| Time | Temp. | Humidity | Pressure | Rain* | Wind** | Luminosity | Snow |
|---|---|---|---|---|---|---|---|
| 1777913781 | 20.56° C | 31% | 1005.6 hPa | 0 mm | - | 943 W/m² | - |
| 1777913477 | 20.56° C | 34% | 1005.5 hPa | 0 mm | - | 947 W/m² | - |
| 1777913174 | 20° C | 33% | 1005.3 hPa | 0 mm | - | 947 W/m² | - |
| 1777912870 | 18.89° C | 34% | 1005.6 hPa | 0 mm | - | 950 W/m² | - |
| 1777912567 | 20° C | 37% | 1005.4 hPa | 0 mm | - | 950 W/m² | - |
| 1777912264 | 20° C | 35% | 1005.4 hPa | 0 mm | - | 952 W/m² | - |
| 1777911959 | 20° C | 34% | 1005.5 hPa | 0 mm | - | 946 W/m² | - |
| 1777911655 | 18.89° C | 33% | 1005.5 hPa | 0 mm | - | 946 W/m² | - |
| 1777911352 | 18.89° C | 33% | 1005.9 hPa | 0 mm | - | 947 W/m² | - |
| 1777911050 | 19.44° C | 33% | 1005.5 hPa | 0 mm | - | 946 W/m² | - |
| 1777910747 | 19.44° C | 32% | 1005.6 hPa | 0 mm | - | 947 W/m² | - |
| 1777910443 | 18.89° C | 33% | 1005.5 hPa | 0 mm | - | 944 W/m² | - |
| 1777910140 | 18.89° C | 36% | 1005.8 hPa | 0 mm | - | 938 W/m² | - |
| 1777909838 | 18.89° C | 37% | 1005.6 hPa | 0 mm | - | 937 W/m² | - |
| 1777909534 | 18.89° C | 35% | 1005.7 hPa | 0 mm | - | 934 W/m² | - |
| 1777909232 | 18.89° C | 34% | 1005.9 hPa | 0 mm | - | 930 W/m² | - |
| 1777908930 | 18.89° C | 36% | 1005.7 hPa | 0 mm | - | 923 W/m² | - |
| 1777908627 | 18.89° C | 37% | 1006 hPa | 0 mm | - | 916 W/m² | - |
| 1777908324 | 18.89° C | 36% | 1006.1 hPa | 0 mm | - | 911 W/m² | - |
| 1777908020 | 18.33° C | 37% | 1006.3 hPa | 0 mm | - | 907 W/m² | - |
| 1777907716 | 17.78° C | 37% | 1006 hPa | 0 mm | - | 903 W/m² | - |
| 1777907411 | 18.33° C | 37% | 1006.1 hPa | 0 mm | - | 875 W/m² | - |
| 1777907108 | 18.33° C | 37% | 1006.1 hPa | 0 mm | - | 900 W/m² | - |
| 1777906806 | 18.33° C | 37% | 1006.3 hPa | 0 mm | - | 893 W/m² | - |
| 1777906503 | 17.78° C | 39% | 1006.5 hPa | 0 mm | - | 854 W/m² | - |
* Rain latest hour (hover to see other rain measurements)
** Current wind speed in m/s (hover to see current wind gust speed)